Flag for Puerto Rico Weather past 2 weeks in Caguas, Puerto Rico

Now
81 °F

Scattered clouds.


Feels Like: 86 °F
Forecast: 72 / 90 °F
Wind: 9 mph from East

Location: Luis Munoz Marin

Current Time: May 25, 2015 at 8:12:05 AM

Latest Report: May 25, 2015 at 7:56 AM


Visibility: 10 mi

Pressure: 30.07 "Hg

Humidity: 77%

Dew point: 73 °F

Location of CaguasLocation

Historic Weather in Caguas — Graph

°F

Caguas temperature yesterday

Maximum temperature yesterday: 88 °F (at 10:56 AM)
Minimum temperature yesterday: 78 °F (at 2:56 AM)
Average temperature yesterday: 82 °F

Past Weeks' High & Low Weather Summary

 TemperatureHumidityPressure
High90 °F (May 13, 11:56 AM)97% (May 20, 5:56 PM)30.14 "Hg (May 20, 5:56 PM)
Low76 °F (May 14, 4:56 AM)48% (May 13, 11:56 AM)29.95 "Hg (May 20, 4:56 PM)
Average82 °F77%30.05 "Hg
* Reported May 10 6:56 AM — May 25 6:56 AM, Caguas, Weather by CustomWeather, © 2015

Note: Actual official high and low records may vary slightly from our data, if they occured in-between our weather recording intervals... More about our weather records

Advertising

Caguas weather history for previous 24 hours

 ConditionsComfort  
Time TempWeatherWind HumidityBarometerVisibility
6:56 AM
Mon, May 25
78 °FScattered clouds.No wind84%30.06 "Hg10 mi
5:56 AM77 °FLight rain. Passing clouds.7 mph85%30.05 "Hg10 mi
4:56 AM78 °FPassing clouds.3 mph82%30.04 "Hg10 mi
3:56 AM79 °FPassing clouds.3 mph79%30.04 "Hg10 mi
2:56 AM79 °FPassing clouds.5 mph82%30.03 "Hg10 mi
1:56 AM80 °FPassing clouds.9 mph76%30.04 "Hg10 mi
12:56 AM80 °FPassing clouds.12 mph79%30.06 "Hg10 mi
11:56 PM
Sun, May 24
80 °FPassing clouds.14 mph79%30.08 "Hg10 mi
10:56 PM81 °FPassing clouds.10 mph77%30.09 "Hg10 mi
9:56 PM81 °FPassing clouds.14 mph79%30.09 "Hg10 mi
8:56 PM81 °FPassing clouds.13 mph79%30.08 "Hg10 mi
7:56 PM81 °FPassing clouds.13 mph79%30.06 "Hg10 mi
6:56 PM82 °FPassing clouds.15 mph77%30.04 "Hg9 mi
5:56 PM83 °FPassing clouds.17 mph72%30.03 "Hg9 mi
4:56 PM85 °FScattered clouds.20 mph68%30.03 "Hg9 mi
3:56 PM86 °FScattered clouds.16 mph67%30.03 "Hg9 mi
2:56 PM86 °FPassing clouds.17 mph67%30.04 "Hg9 mi
1:56 PM87 °FPassing clouds.18 mph65%30.05 "Hg9 mi
12:56 PM86 °FPassing clouds.23 mph65%30.06 "Hg9 mi
11:56 AM87 °FPassing clouds.21 mph63%30.08 "Hg9 mi
10:56 AM88 °FScattered clouds.17 mph57%30.09 "Hg9 mi
9:56 AM86 °FScattered clouds.17 mph61%30.10 "Hg9 mi
8:56 AM83 °FScattered clouds.17 mph72%30.10 "Hg9 mi
Weather by CustomWeather, © 2015

See weather overviewHow to use our weather pages